Regional Weather Roundup
Issued by NWS Northern Indiana

Home | Current Version | Previous Version | Graphics & Text | Print | Product List | Glossary On
Versions: 1 2 3 4 5 6 7 8 9 10 11 12 13 14 15 16 17 18 19 20 21 22 23 24 25 26 27 28 29 30 31 32 33 34 35 36 37 38 39 40 41 42 43 44 45 46 47 48 49 50
000
ASUS43 KIWX 200210
RWRIWX

KIWX WEATHER ROUNDUP
NATIONAL WEATHER SERVICE NORTHERN INDIANA
1000 PM EDT TUE SEP 19 2017

NOTE: "FAIR" INDICATES FEW OR NO CLOUDS BELOW 12,000 FEET WITH NO
SIGNIFICANT WEATHER AND/OR OBSTRUCTIONS TO VISIBILITY.

* THESE STATIONS ARE NOT UNDER NWS QUALITY CONTROL. THEY ALSO MAY NOT
  REPORT WEATHER SUCH AS PRECIPITATION OR FOG.

INZ001>027-200300-
NORTHERN INDIANA

CITY           SKY/WX    TMP DP  RH WIND       PRES   REMARKS
GARY*          PTCLDY    68  64  88 VRB3      29.93S
VALPARAISO     CLEAR     65  63  93 CALM      29.93S
MICHIGAN CITY* PTCLDY    63  63 100 CALM      29.94R FOG
LAPORTE*       CLEAR     62  62  97 CALM      29.94S
KNOX*          CLEAR     63  61  94 CALM      29.93R
SOUTH BEND     CLEAR     66  66 100 NE3       29.93S
GOSHEN         CLOUDY    67  64  90 CALM      29.93S
MONTICELLO*    CLEAR     65  64  96 CALM      29.92S
LOGANSPORT*    CLEAR     63  63 100 CALM      29.94R
ROCHESTER*     PTCLDY    68  66  94 CALM      29.94R
WARSAW*        MOCLDY    64  64 100 CALM      29.93S
AUBURN*        CLOUDY    68  64  88 E3        29.95S FOG
FORT WAYNE     PTCLDY    67  65  93 CALM      29.94R
HUNTINGTON*    MOCLDY    66  65  96 CALM      29.93S
PERU/GRISSOM   CLEAR     67  67 100 CALM      29.93R

$$
INZ028>050-200300-
CENTRAL INDIANA

CITY           SKY/WX    TMP DP  RH WIND       PRES   REMARKS
LAFAYETTE      CLEAR     65  65 100 CALM      29.91S
KOKOMO*        CLEAR     65  64  97 E5        29.94S
MUNCIE*        MOCLDY    70  65  84 SE5       29.95R
INDIANAPOLIS   PTCLDY    73  66  78 CALM      29.92S

$$
MIZ043>046-050>051-056>058-064>065-071>073-077>080-200300-
SOUTHWEST LOWER MICHIGAN

CITY           SKY/WX    TMP DP  RH WIND       PRES   REMARKS
BATTLE CREEK   CLOUDY    67  66  97 NE7       29.95S
BENTON HARBOR  CLOUDY    68  63  84 CALM      29.93R
COLDWATER*     CLOUDY    68  68 100 E5        29.95R
HILLSDALE*     CLOUDY    64  63  94 CALM      29.96S
HOLLAND        CLEAR     67  60  78 E3        29.95S
GRAND RAPIDS   CLOUDY    68  63  84 NE8       29.95S
KALAMAZOO      CLOUDY    69  63  81 NE3       29.95R
STURGIS*       CLOUDY    66  66  98 MISG      29.94S FOG
THREE RIVERS*  CLOUDY    68  67  96 CALM      29.94S FOG

$$
OHZ001>008-015>018-024>025-200300-
NORTHWEST OHIO

CITY           SKY/WX    TMP DP  RH WIND       PRES   REMARKS
WAUSEON*       CLOUDY    70  70 100 SE5       29.95R FOG
DEFIANCE       CLOUDY    69  67  93 SE6       29.94S FOG
FINDLAY        CLOUDY    70  66  87 SE3       29.95R
TOLEDO EXPRESS CLOUDY    67  67 100 E3        29.95R FOG
TOLEDO METCALF CLOUDY    68  67  96 E6        29.96S FOG
LIMA           CLOUDY    69  67  93 S5        29.96R

$$
AND FOR LAKE MICHIGAN COASTAL AND OPEN LAKE BUOY OBSERVATIONS

STATION/POSITION TEMP    WIND        PRES    VSBY  WAVE
                 AIR SEA DIR/SP/G                  HT/PER
                 (F)     (DEG/KT/KT) (MB)    (MI)  (FT/S)
CALUMET HARBOR    68      40/  4/  5 1012.7F
MICHIGAN CITY     67      40/  3/  3   N/A
BURNS HARBOR      68      70/  6/  8 1013.9
SAINT JOSEPH      67      CALM  /  1 1014.2
SOUTH LAKE BUOY   69 69   40/  6/  8 1013.5S         0
4 MI NW BRIDGMAN  68 69  150/  4/  4 1013.3          1/ 2
MICHIGAN CITY     68 69   60/  2/  4   N/A           1/ 4

$$
&&




USA.gov is the U.S. government's official web portal to all federal, state and local government web resources and services.